Time,TemperatureF,DewpointF,PressureIn,WindDirection,WindDirectionDegrees,WindSpeedMPH,WindSpeedGustMPH,Humidity,HourlyPrecipIn,Conditions,Clouds,dailyrainin,SoftwareType,DateUTC
2013-04-11 00:00:00,36.5,31.5,30.08,NW,315,0.0,2.0,82,0.00,,,0.00,WeatherCatV1.15B25,2013-04-11 04:00:00,
2013-04-11 00:05:00,36.5,31.5,30.08,NW,315,0.0,2.0,82,0.00,,,0.00,WeatherCatV1.15B25,2013-04-11 04:05:00,
2013-04-11 00:10:00,36.5,31.5,30.08,NW,315,0.0,2.0,82,0.00,,,0.00,WeatherCatV1.15B25,2013-04-11 04:10:00,
2013-04-11 00:15:00,36.5,31.5,30.08,NW,315,0.0,2.0,82,0.00,,,0.00,WeatherCatV1.15B25,2013-04-11 04:15:00,
2013-04-11 00:20:00,36.5,31.5,30.08,NW,315,0.0,2.0,82,0.00,,,0.00,WeatherCatV1.15B25,2013-04-11 04:20:00,
2013-04-11 00:25:00,36.5,31.5,30.08,NW,315,0.0,2.0,82,0.00,,,0.00,WeatherCatV1.15B25,2013-04-11 04:25:00,
2013-04-11 00:30:00,36.6,31.0,30.06,North,0,0.0,2.0,80,0.00,,,0.00,WeatherCatV1.15B25,2013-04-11 04:30:00,
2013-04-11 00:35:00,36.6,31.0,30.06,North,0,0.0,2.0,80,0.00,,,0.00,WeatherCatV1.15B25,2013-04-11 04:35:00,
2013-04-11 00:40:00,36.6,31.0,30.06,North,0,0.0,2.0,80,0.00,,,0.00,WeatherCatV1.15B25,2013-04-11 04:40:00,
2013-04-11 00:45:00,36.6,31.0,30.06,North,0,0.0,2.0,80,0.00,,,0.00,WeatherCatV1.15B25,2013-04-11 04:45:00,
2013-04-11 00:50:00,36.6,31.0,30.06,North,0,0.0,2.0,80,0.00,,,0.00,WeatherCatV1.15B25,2013-04-11 04:50:00,
2013-04-11 00:55:00,36.6,31.0,30.06,North,0,0.0,2.0,80,0.00,,,0.00,WeatherCatV1.15B25,2013-04-11 04:55:00,
2013-04-11 01:00:00,36.3,31.0,30.06,NNE,22,1.0,6.0,81,0.00,,,0.00,WeatherCatV1.15B25,2013-04-11 05:00:00,
2013-04-11 01:05:00,36.3,31.0,30.06,NNE,22,1.0,6.0,81,0.00,,,0.00,WeatherCatV1.15B25,2013-04-11 05:05:00,
2013-04-11 01:10:00,36.3,31.0,30.06,NNE,22,1.0,6.0,81,0.00,,,0.00,WeatherCatV1.15B25,2013-04-11 05:10:00,
2013-04-11 01:15:00,36.3,31.0,30.06,NNE,22,1.0,6.0,81,0.00,,,0.00,WeatherCatV1.15B25,2013-04-11 05:15:00,
2013-04-11 01:20:00,36.3,31.0,30.06,NNE,22,1.0,6.0,81,0.00,,,0.00,WeatherCatV1.15B25,2013-04-11 05:20:00,
2013-04-11 01:25:00,36.9,28.4,30.05,NNE,22,4.0,10.0,71,0.00,,,0.00,WeatherCatV1.15B25,2013-04-11 05:25:00,
2013-04-11 01:30:00,36.9,28.4,30.05,NNE,22,4.0,10.0,71,0.00,,,0.00,WeatherCatV1.15B25,2013-04-11 05:30:00,
2013-04-11 01:35:00,36.9,28.4,30.05,NNE,22,4.0,10.0,71,0.00,,,0.00,WeatherCatV1.15B25,2013-04-11 05:35:00,
2013-04-11 01:40:00,36.9,28.4,30.05,NNE,22,4.0,10.0,71,0.00,,,0.00,WeatherCatV1.15B25,2013-04-11 05:40:00,
2013-04-11 01:45:00,36.9,28.4,30.05,NNE,22,4.0,10.0,71,0.00,,,0.00,WeatherCatV1.15B25,2013-04-11 05:45:00,
2013-04-11 01:50:00,36.9,28.4,30.05,NNE,22,4.0,10.0,71,0.00,,,0.00,WeatherCatV1.15B25,2013-04-11 05:50:00,
2013-04-11 01:55:00,36.3,27.5,30.05,NE,45,4.0,11.0,70,0.00,,,0.00,WeatherCatV1.15B25,2013-04-11 05:55:00,
2013-04-11 02:00:00,36.3,27.5,30.05,NE,45,4.0,11.0,70,0.00,,,0.00,WeatherCatV1.15B25,2013-04-11 06:00:00,
2013-04-11 02:05:00,36.3,27.5,30.05,NE,45,4.0,11.0,70,0.00,,,0.00,WeatherCatV1.15B25,2013-04-11 06:05:00,
2013-04-11 02:10:00,36.3,27.5,30.05,NE,45,4.0,11.0,70,0.00,,,0.00,WeatherCatV1.15B25,2013-04-11 06:10:00,
2013-04-11 02:15:00,36.3,27.5,30.05,NE,45,4.0,11.0,70,0.00,,,0.00,WeatherCatV1.15B25,2013-04-11 06:15:00,
2013-04-11 02:20:00,36.3,27.5,30.05,NE,45,4.0,11.0,70,0.00,,,0.00,WeatherCatV1.15B25,2013-04-11 06:20:00,
2013-04-11 02:25:00,36.3,27.5,30.05,NE,45,4.0,11.0,70,0.00,,,0.00,WeatherCatV1.15B25,2013-04-11 06:25:00,
2013-04-11 02:30:00,35.8,26.6,30.01,NE,45,4.0,11.0,69,0.00,,,0.00,WeatherCatV1.15B25,2013-04-11 06:30:00,
2013-04-11 02:35:00,35.8,26.6,30.01,NE,45,4.0,11.0,69,0.00,,,0.00,WeatherCatV1.15B25,2013-04-11 06:35:00,
2013-04-11 02:40:00,35.8,26.6,30.01,NE,45,4.0,11.0,69,0.00,,,0.00,WeatherCatV1.15B25,2013-04-11 06:40:00,
2013-04-11 02:45:00,35.8,26.6,30.01,NE,45,4.0,11.0,69,0.00,,,0.00,WeatherCatV1.15B25,2013-04-11 06:45:00,
2013-04-11 02:50:00,35.8,26.6,30.01,NE,45,4.0,11.0,69,0.00,,,0.00,WeatherCatV1.15B25,2013-04-11 06:50:00,
2013-04-11 02:55:00,35.3,27.2,30.00,NE,45,3.0,9.0,72,0.00,,,0.00,WeatherCatV1.15B25,2013-04-11 06:55:00,
2013-04-11 03:00:00,35.3,27.2,30.00,NE,45,3.0,9.0,72,0.00,,,0.00,WeatherCatV1.15B25,2013-04-11 07:00:00,
2013-04-11 03:05:00,35.3,27.2,30.00,NE,45,3.0,9.0,72,0.00,,,0.00,WeatherCatV1.15B25,2013-04-11 07:05:00,
2013-04-11 03:10:00,35.3,27.2,30.00,NE,45,3.0,9.0,72,0.00,,,0.00,WeatherCatV1.15B25,2013-04-11 07:10:00,
2013-04-11 03:15:00,35.3,27.2,30.00,NE,45,3.0,9.0,72,0.00,,,0.00,WeatherCatV1.15B25,2013-04-11 07:15:00,
2013-04-11 03:20:00,35.3,27.2,30.00,NE,45,3.0,9.0,72,0.00,,,0.00,WeatherCatV1.15B25,2013-04-11 07:20:00,
2013-04-11 03:25:00,35.0,26.9,29.99,NE,45,3.0,11.0,72,0.00,,,0.00,WeatherCatV1.15B25,2013-04-11 07:25:00,
2013-04-11 03:30:00,35.0,26.9,29.99,NE,45,3.0,11.0,72,0.00,,,0.00,WeatherCatV1.15B25,2013-04-11 07:30:00,
2013-04-11 03:35:00,35.0,26.9,29.99,NE,45,3.0,11.0,72,0.00,,,0.00,WeatherCatV1.15B25,2013-04-11 07:35:00,
2013-04-11 03:40:00,35.0,26.9,29.99,NE,45,3.0,11.0,72,0.00,,,0.00,WeatherCatV1.15B25,2013-04-11 07:40:00,
2013-04-11 03:45:00,35.0,26.9,29.99,NE,45,3.0,11.0,72,0.00,,,0.00,WeatherCatV1.15B25,2013-04-11 07:45:00,
2013-04-11 03:50:00,35.0,26.9,29.99,NE,45,3.0,11.0,72,0.00,,,0.00,WeatherCatV1.15B25,2013-04-11 07:50:00,
2013-04-11 03:55:00,35.0,26.9,29.99,NE,45,3.0,11.0,72,0.00,,,0.00,WeatherCatV1.15B25,2013-04-11 07:55:00,
2013-04-11 04:00:00,34.9,26.8,30.00,NE,45,2.0,8.0,72,0.00,,,0.00,WeatherCatV1.15B25,2013-04-11 08:00:00,
2013-04-11 04:05:00,34.9,26.8,30.00,NE,45,2.0,8.0,72,0.00,,,0.00,WeatherCatV1.15B25,2013-04-11 08:05:00,
2013-04-11 04:10:00,34.9,26.8,30.00,NE,45,2.0,8.0,72,0.00,,,0.00,WeatherCatV1.15B25,2013-04-11 08:10:00,
2013-04-11 04:15:00,34.9,26.8,30.00,NE,45,2.0,8.0,72,0.00,,,0.00,WeatherCatV1.15B25,2013-04-11 08:15:00,
2013-04-11 04:20:00,34.9,26.8,30.00,NE,45,2.0,8.0,72,0.00,,,0.00,WeatherCatV1.15B25,2013-04-11 08:20:00,
2013-04-11 04:25:00,34.9,26.8,30.00,NE,45,2.0,8.0,72,0.00,,,0.00,WeatherCatV1.15B25,2013-04-11 08:25:00,
2013-04-11 04:30:00,34.7,27.3,30.01,NE,45,1.0,5.0,74,0.00,,,0.00,WeatherCatV1.15B25,2013-04-11 08:30:00,
2013-04-11 04:35:00,34.7,27.3,30.01,NE,45,1.0,5.0,74,0.00,,,0.00,WeatherCatV1.15B25,2013-04-11 08:35:00,
2013-04-11 04:40:00,34.7,27.3,30.01,NE,45,1.0,5.0,74,0.00,,,0.00,WeatherCatV1.15B25,2013-04-11 08:40:00,
2013-04-11 04:45:00,34.7,27.3,30.01,NE,45,1.0,5.0,74,0.00,,,0.00,WeatherCatV1.15B25,2013-04-11 08:45:00,
2013-04-11 04:50:00,34.7,27.3,30.01,NE,45,1.0,5.0,74,0.00,,,0.00,WeatherCatV1.15B25,2013-04-11 08:50:00,
2013-04-11 04:55:00,34.9,26.5,30.01,NNE,22,1.0,4.0,71,0.00,,,0.00,WeatherCatV1.15B25,2013-04-11 08:55:00,
2013-04-11 05:00:00,34.9,26.5,30.01,NNE,22,1.0,4.0,71,0.00,,,0.00,WeatherCatV1.15B25,2013-04-11 09:00:00,
2013-04-11 05:05:00,34.9,26.5,30.01,NNE,22,1.0,4.0,71,0.00,,,0.00,WeatherCatV1.15B25,2013-04-11 09:05:00,
2013-04-11 05:10:00,34.9,26.5,30.01,NNE,22,1.0,4.0,71,0.00,,,0.00,WeatherCatV1.15B25,2013-04-11 09:10:00,
2013-04-11 05:15:00,34.9,26.5,30.01,NNE,22,1.0,4.0,71,0.00,,,0.00,WeatherCatV1.15B25,2013-04-11 09:15:00,
2013-04-11 05:20:00,34.9,26.5,30.01,NNE,22,1.0,4.0,71,0.00,,,0.00,WeatherCatV1.15B25,2013-04-11 09:20:00,
2013-04-11 05:25:00,34.9,26.5,30.01,NNE,22,1.0,4.0,71,0.00,,,0.00,WeatherCatV1.15B25,2013-04-11 09:25:00,
2013-04-11 05:30:00,35.9,26.4,30.03,NE,45,2.0,5.0,68,0.00,,,0.00,WeatherCatV1.15B25,2013-04-11 09:30:00,
2013-04-11 05:35:00,35.9,26.4,30.03,NE,45,2.0,5.0,68,0.00,,,0.00,WeatherCatV1.15B25,2013-04-11 09:35:00,
2013-04-11 05:40:00,35.9,26.4,30.03,NE,45,2.0,5.0,68,0.00,,,0.00,WeatherCatV1.15B25,2013-04-11 09:40:00,
2013-04-11 05:45:00,35.9,26.4,30.03,NE,45,2.0,5.0,68,0.00,,,0.00,WeatherCatV1.15B25,2013-04-11 09:45:00,
2013-04-11 05:50:00,35.9,26.4,30.03,NE,45,2.0,5.0,68,0.00,,,0.00,WeatherCatV1.15B25,2013-04-11 09:50:00,
2013-04-11 05:55:00,35.9,26.4,30.03,NE,45,2.0,5.0,68,0.00,,,0.00,WeatherCatV1.15B25,2013-04-11 09:55:00,
2013-04-11 06:00:00,36.0,26.8,30.00,NE,45,3.0,11.0,69,0.00,,,0.00,WeatherCatV1.15B25,2013-04-11 10:00:00,
2013-04-11 06:05:00,36.0,26.8,30.00,NE,45,3.0,11.0,69,0.00,,,0.00,WeatherCatV1.15B25,2013-04-11 10:05:00,
2013-04-11 06:10:00,36.0,26.8,30.00,NE,45,3.0,11.0,69,0.00,,,0.00,WeatherCatV1.15B25,2013-04-11 10:10:00,
2013-04-11 06:15:00,36.0,26.8,30.00,NE,45,3.0,11.0,69,0.00,,,0.00,WeatherCatV1.15B25,2013-04-11 10:15:00,
2013-04-11 06:20:00,36.0,26.8,30.00,NE,45,3.0,11.0,69,0.00,,,0.00,WeatherCatV1.15B25,2013-04-11 10:20:00,
2013-04-11 06:32:00,35.7,24.7,29.91,ENE,76,10.0,17.0,64,0.00,,,0.00,WeatherCatV1.15B25,2013-04-11 10:32:00,
2013-04-11 06:37:00,35.5,24.5,29.91,ENE,69,6.0,21.0,64,0.00,,,0.00,WeatherCatV1.15B25,2013-04-11 10:37:00,
2013-04-11 06:42:00,35.4,24.5,29.91,ESE,121,10.0,17.0,64,0.00,,,0.00,WeatherCatV1.15B25,2013-04-11 10:42:00,
2013-04-11 06:47:00,35.4,24.5,29.92,East,86,14.0,20.0,64,0.00,,,0.00,WeatherCatV1.15B25,2013-04-11 10:47:00,
2013-04-11 06:52:00,35.3,24.7,29.93,East,80,5.0,13.0,65,0.00,,,0.00,WeatherCatV1.15B25,2013-04-11 10:52:00,
2013-04-11 06:57:00,35.3,24.7,29.94,East,86,11.0,11.0,65,0.00,,,0.00,WeatherCatV1.15B25,2013-04-11 10:57:00,
2013-04-11 07:02:00,35.3,24.7,29.95,SE,127,10.0,16.0,65,0.00,,,0.00,WeatherCatV1.15B25,2013-04-11 11:02:00,
2013-04-11 07:07:00,35.2,25.0,29.96,East,80,13.0,14.0,66,0.00,,,0.00,WeatherCatV1.15B25,2013-04-11 11:07:00,
2013-04-11 07:12:00,35.2,24.6,29.96,ENE,64,4.0,10.0,65,0.00,,,0.00,WeatherCatV1.15B25,2013-04-11 11:12:00,
2013-04-11 07:17:00,35.1,24.9,29.95,ESE,116,10.0,17.0,66,0.00,,,0.00,WeatherCatV1.15B25,2013-04-11 11:17:00,
2013-04-11 07:22:00,35.1,25.3,30.00,SE,146,5.0,8.0,67,0.00,,,0.00,WeatherCatV1.15B25,2013-04-11 11:22:00,
2013-04-11 07:32:00,35.1,24.9,30.01,East,96,3.0,9.0,66,0.00,,,0.00,WeatherCatV1.15B25,2013-04-11 11:32:00,
2013-04-11 07:37:00,35.1,24.9,30.02,ESE,113,3.0,9.0,66,0.00,,,0.00,WeatherCatV1.15B25,2013-04-11 11:37:00,
2013-04-11 07:42:00,35.2,25.0,30.02,East,92,7.0,9.0,66,0.00,,,0.00,WeatherCatV1.15B25,2013-04-11 11:42:00,
2013-04-11 07:47:00,35.2,25.4,30.02,East,89,7.0,11.0,67,0.00,,,0.00,WeatherCatV1.15B25,2013-04-11 11:47:00,
2013-04-11 07:52:00,35.1,25.6,30.02,SE,145,1.0,6.0,68,0.00,,,0.00,WeatherCatV1.15B25,2013-04-11 11:52:00,
2013-04-11 07:57:00,35.1,24.9,30.02,ENE,67,5.0,12.0,66,0.00,,,0.00,WeatherCatV1.15B25,2013-04-11 11:57:00,
2013-04-11 08:02:00,35.1,25.3,30.02,South,169,6.0,12.0,67,0.00,,,0.00,WeatherCatV1.15B25,2013-04-11 12:02:00,
2013-04-11 08:07:00,35.1,25.6,30.02,ESE,113,4.0,10.0,68,0.00,,,0.00,WeatherCatV1.15B25,2013-04-11 12:07:00,
2013-04-11 08:12:00,35.1,25.6,30.02,ENE,71,4.0,8.0,68,0.00,,,0.00,WeatherCatV1.15B25,2013-04-11 12:12:00,
2013-04-11 08:17:00,35.1,25.6,30.03,ESE,117,6.0,10.0,68,0.00,,,0.00,WeatherCatV1.15B25,2013-04-11 12:17:00,
2013-04-11 08:22:00,35.1,25.3,30.03,ESE,110,4.0,11.0,67,0.00,,,0.00,WeatherCatV1.15B25,2013-04-11 12:22:00,
2013-04-11 08:27:00,35.1,25.6,30.03,SE,124,6.0,12.0,68,0.00,,,0.00,WeatherCatV1.15B25,2013-04-11 12:27:00,
2013-04-11 08:32:00,35.0,25.5,30.03,SSE,151,2.0,7.0,68,0.00,,,0.00,WeatherCatV1.15B25,2013-04-11 12:32:00,
2013-04-11 08:37:00,35.0,25.5,30.02,ENE,75,6.0,7.0,68,0.00,,,0.00,WeatherCatV1.15B25,2013-04-11 12:37:00,
2013-04-11 08:42:00,35.0,25.9,30.00,East,100,4.0,12.0,69,0.00,,,0.00,WeatherCatV1.15B25,2013-04-11 12:42:00,
2013-04-11 08:47:00,34.9,25.8,29.99,ESE,102,4.0,12.0,69,0.00,,,0.00,WeatherCatV1.15B25,2013-04-11 12:47:00,
2013-04-11 08:52:00,34.8,25.7,30.00,ESE,122,6.0,10.0,69,0.00,,,0.00,WeatherCatV1.15B25,2013-04-11 12:52:00,
2013-04-11 08:57:00,34.7,25.2,30.00,ENE,60,9.0,14.0,68,0.00,,,0.00,WeatherCatV1.15B25,2013-04-11 12:57:00,
2013-04-11 09:02:00,34.6,25.1,29.99,NE,34,5.0,10.0,68,0.00,,,0.00,WeatherCatV1.15B25,2013-04-11 13:02:00,
2013-04-11 09:07:00,34.5,25.0,29.98,SE,141,6.0,15.0,68,0.00,,,0.00,WeatherCatV1.15B25,2013-04-11 13:07:00,
2013-04-11 09:12:00,34.5,25.0,29.99,SE,142,9.0,18.0,68,0.00,,,0.00,WeatherCatV1.15B25,2013-04-11 13:12:00,
2013-04-11 09:17:00,34.5,25.4,30.00,ESE,102,6.0,14.0,69,0.00,,,0.00,WeatherCatV1.15B25,2013-04-11 13:17:00,
2013-04-11 09:22:00,34.4,25.0,29.99,ENE,63,7.0,16.0,68,0.00,,,0.00,WeatherCatV1.15B25,2013-04-11 13:22:00,
2013-04-11 09:32:00,34.4,24.6,29.99,NE,53,11.0,18.0,67,0.00,,,0.00,WeatherCatV1.15B25,2013-04-11 13:32:00,
2013-04-11 09:37:00,34.3,24.9,30.00,SSE,152,9.0,14.0,68,0.00,,,0.00,WeatherCatV1.15B25,2013-04-11 13:37:00,
2013-04-11 09:42:00,34.3,24.5,30.00,South,173,6.0,16.0,67,0.00,,,0.00,WeatherCatV1.15B25,2013-04-11 13:42:00,
2013-04-11 09:47:00,34.3,24.9,30.00,ESE,115,13.0,13.0,68,0.00,,,0.00,WeatherCatV1.15B25,2013-04-11 13:47:00,
2013-04-11 09:52:00,34.4,25.0,29.99,SE,136,4.0,12.0,68,0.00,,,0.00,WeatherCatV1.15B25,2013-04-11 13:52:00,
2013-04-11 09:57:00,34.4,25.3,29.99,ESE,105,6.0,12.0,69,0.00,,,0.00,WeatherCatV1.15B25,2013-04-11 13:57:00,
2013-04-11 10:02:00,34.3,24.5,29.98,ESE,112,11.0,14.0,67,0.00,,,0.00,WeatherCatV1.15B25,2013-04-11 14:02:00,
2013-04-11 10:07:00,34.3,24.5,29.97,East,97,14.0,14.0,67,0.00,,,0.00,WeatherCatV1.15B25,2013-04-11 14:07:00,
2013-04-11 10:12:00,34.4,25.0,29.97,ESE,117,7.0,12.0,68,0.00,,,0.00,WeatherCatV1.15B25,2013-04-11 14:12:00,
2013-04-11 10:17:00,34.5,24.3,29.96,East,97,6.0,21.0,66,0.00,,,0.00,WeatherCatV1.15B25,2013-04-11 14:17:00,
2013-04-11 10:27:00,34.4,24.2,29.96,SSE,149,6.0,19.0,66,0.00,,,0.00,WeatherCatV1.15B25,2013-04-11 14:27:00,
2013-04-11 10:32:00,34.6,24.4,29.96,SE,146,11.0,16.0,66,0.00,,,0.00,WeatherCatV1.15B25,2013-04-11 14:32:00,
2013-04-11 10:37:00,34.7,24.5,29.96,East,95,20.0,20.0,66,0.00,,,0.00,WeatherCatV1.15B25,2013-04-11 14:37:00,
2013-04-11 10:42:00,34.7,24.2,29.95,ENE,78,12.0,18.0,65,0.00,,,0.00,WeatherCatV1.15B25,2013-04-11 14:42:00,
2013-04-11 10:47:00,34.7,24.2,29.95,ESE,117,11.0,22.0,65,0.00,,,0.00,WeatherCatV1.15B25,2013-04-11 14:47:00,
2013-04-11 10:52:00,34.9,24.7,29.95,East,90,6.0,14.0,66,0.00,,,0.00,WeatherCatV1.15B25,2013-04-11 14:52:00,
2013-04-11 10:57:00,34.9,24.7,29.95,ESE,107,12.0,15.0,66,0.00,,,0.00,WeatherCatV1.15B25,2013-04-11 14:57:00,
2013-04-11 11:07:00,35.0,24.4,29.97,ESE,121,10.0,14.0,65,0.00,,,0.00,WeatherCatV1.15B25,2013-04-11 15:07:00,
2013-04-11 11:12:00,35.0,24.4,29.97,ENE,62,7.0,13.0,65,0.00,,,0.00,WeatherCatV1.15B25,2013-04-11 15:12:00,
2013-04-11 11:17:00,35.0,24.1,29.97,ESE,117,7.0,17.0,64,0.00,,,0.00,WeatherCatV1.15B25,2013-04-11 15:17:00,
2013-04-11 11:27:00,35.2,24.6,29.96,ESE,112,7.0,15.0,65,0.00,,,0.00,WeatherCatV1.15B25,2013-04-11 15:27:00,
2013-04-11 11:32:00,35.5,24.9,29.95,ENE,78,11.0,18.0,65,0.00,,,0.00,WeatherCatV1.15B25,2013-04-11 15:32:00,
2013-04-11 11:37:00,35.5,24.5,29.94,East,79,4.0,19.0,64,0.00,,,0.00,WeatherCatV1.15B25,2013-04-11 15:37:00,
2013-04-11 11:42:00,35.5,24.5,29.93,South,173,18.0,20.0,64,0.00,,,0.00,WeatherCatV1.15B25,2013-04-11 15:42:00,
2013-04-11 11:47:00,35.5,24.2,29.94,SE,146,9.0,21.0,63,0.00,,,0.00,WeatherCatV1.15B25,2013-04-11 15:47:00,
2013-04-11 11:52:00,35.6,24.3,29.94,SE,136,10.0,19.0,63,0.00,,,0.00,WeatherCatV1.15B25,2013-04-11 15:52:00,
2013-04-11 11:57:00,35.6,24.6,29.94,ENE,67,11.0,18.0,64,0.00,,,0.00,WeatherCatV1.15B25,2013-04-11 15:57:00,
2013-04-11 12:02:00,35.7,25.1,29.93,SE,139,5.0,13.0,65,0.00,,,0.00,WeatherCatV1.15B25,2013-04-11 16:02:00,
2013-04-11 12:07:00,35.7,24.7,29.93,SE,143,12.0,17.0,64,0.00,,,0.00,WeatherCatV1.15B25,2013-04-11 16:07:00,
2013-04-11 12:12:00,35.6,25.0,29.94,SSW,204,8.0,14.0,65,0.00,,,0.00,WeatherCatV1.15B25,2013-04-11 16:12:00,
2013-04-11 12:17:00,35.6,25.0,29.94,SSE,160,4.0,14.0,65,0.00,,,0.00,WeatherCatV1.15B25,2013-04-11 16:17:00,
2013-04-11 12:22:00,35.6,25.0,29.94,SSE,152,12.0,15.0,65,0.00,,,0.00,WeatherCatV1.15B25,2013-04-11 16:22:00,
2013-04-11 12:27:00,35.5,24.2,29.93,ENE,76,14.0,18.0,63,0.00,,,0.00,WeatherCatV1.15B25,2013-04-11 16:27:00,
2013-04-11 12:32:00,35.5,24.2,29.93,ESE,117,10.0,21.0,63,0.00,,,0.00,WeatherCatV1.15B25,2013-04-11 16:32:00,
2013-04-11 12:37:00,35.4,24.5,29.93,SSE,148,20.0,20.0,64,0.00,,,0.00,WeatherCatV1.15B25,2013-04-11 16:37:00,
2013-04-11 12:42:00,35.3,24.7,29.93,ESE,114,9.0,17.0,65,0.00,,,0.00,WeatherCatV1.15B25,2013-04-11 16:42:00,
2013-04-11 12:47:00,34.9,26.5,29.93,SE,143,3.0,10.0,71,0.00,,,0.00,WeatherCatV1.15B25,2013-04-11 16:47:00,
2013-04-11 12:52:00,34.7,26.3,29.92,SE,129,10.0,16.0,71,0.00,,,0.00,WeatherCatV1.15B25,2013-04-11 16:52:00,
2013-04-11 12:57:00,34.7,25.9,29.92,ENE,73,6.0,14.0,70,0.00,,,0.00,WeatherCatV1.15B25,2013-04-11 16:57:00,
2013-04-11 13:02:00,34.9,25.8,29.91,SE,136,20.0,20.0,69,0.00,,,0.00,WeatherCatV1.15B25,2013-04-11 17:02:00,
2013-04-11 13:07:00,35.0,25.9,29.90,ESE,109,6.0,17.0,69,0.00,,,0.00,WeatherCatV1.15B25,2013-04-11 17:07:00,
2013-04-11 13:12:00,35.1,26.0,29.90,SSE,151,13.0,19.0,69,0.00,,,0.00,WeatherCatV1.15B25,2013-04-11 17:12:00,
2013-04-11 13:17:00,35.0,26.2,29.90,ESE,108,8.0,15.0,70,0.00,,,0.00,WeatherCatV1.15B25,2013-04-11 17:17:00,
2013-04-11 13:27:00,35.1,24.9,29.90,SE,127,13.0,26.0,66,0.00,,,0.00,WeatherCatV1.15B25,2013-04-11 17:27:00,
2013-04-11 13:32:00,34.8,24.3,29.90,NE,49,14.0,32.0,65,0.00,,,0.00,WeatherCatV1.15B25,2013-04-11 17:32:00,
2013-04-11 13:37:00,34.8,24.6,29.90,ENE,67,13.0,18.0,66,0.00,,,0.00,WeatherCatV1.15B25,2013-04-11 17:37:00,
2013-04-11 13:42:00,34.8,25.0,29.90,SE,142,9.0,19.0,67,0.00,,,0.00,WeatherCatV1.15B25,2013-04-11 17:42:00,
2013-04-11 13:47:00,34.8,25.7,29.90,SE,129,17.0,17.0,69,0.00,,,0.00,WeatherCatV1.15B25,2013-04-11 17:47:00,
2013-04-11 13:52:00,34.7,25.6,29.90,SE,139,9.0,14.0,69,0.00,,,0.00,WeatherCatV1.15B25,2013-04-11 17:52:00,
2013-04-11 13:57:00,34.7,25.2,29.90,SSE,147,9.0,22.0,68,0.00,,,0.00,WeatherCatV1.15B25,2013-04-11 17:57:00,
2013-04-11 14:02:00,34.7,25.2,29.89,SE,135,6.0,16.0,68,0.00,,,0.00,WeatherCatV1.15B25,2013-04-11 18:02:00,
2013-04-11 14:12:00,35.1,24.5,29.89,SSE,151,4.0,21.0,65,0.00,,,0.00,WeatherCatV1.15B25,2013-04-11 18:12:00,
2013-04-11 14:17:00,34.9,24.7,29.90,ESE,117,11.0,19.0,66,0.00,,,0.00,WeatherCatV1.15B25,2013-04-11 18:17:00,
2013-04-11 14:22:00,34.8,25.3,29.90,ESE,122,12.0,19.0,68,0.00,,,0.00,WeatherCatV1.15B25,2013-04-11 18:22:00,
2013-04-11 14:27:00,34.7,24.5,29.90,SE,136,14.0,25.0,66,0.00,,,0.00,WeatherCatV1.15B25,2013-04-11 18:27:00,
2013-04-11 14:32:00,34.4,25.3,29.90,East,84,18.0,22.0,69,0.00,,,0.00,WeatherCatV1.15B25,2013-04-11 18:32:00,
2013-04-11 14:37:00,33.8,26.7,29.89,ENE,63,4.0,15.0,75,0.00,,,0.00,WeatherCatV1.15B25,2013-04-11 18:37:00,
2013-04-11 14:42:00,33.3,26.6,29.89,SE,132,8.0,20.0,76,0.00,,,0.00,WeatherCatV1.15B25,2013-04-11 18:42:00,
2013-04-11 14:47:00,33.0,27.2,29.90,SSE,167,9.0,12.0,79,0.00,,,0.00,WeatherCatV1.15B25,2013-04-11 18:47:00,
2013-04-11 14:52:00,32.8,26.7,29.90,SE,143,13.0,20.0,78,0.00,,,0.00,WeatherCatV1.15B25,2013-04-11 18:52:00,
2013-04-11 14:57:00,32.7,27.2,29.88,SSE,163,10.0,20.0,80,0.00,,,0.00,WeatherCatV1.15B25,2013-04-11 18:57:00,
2013-04-11 15:02:00,32.6,27.4,29.89,ESE,121,8.0,16.0,81,0.00,,,0.00,WeatherCatV1.15B25,2013-04-11 19:02:00,
2013-04-11 15:07:00,32.4,27.5,29.88,ESE,105,7.0,12.0,82,0.00,,,0.00,WeatherCatV1.15B25,2013-04-11 19:07:00,
2013-04-11 15:12:00,32.3,27.4,29.88,ENE,65,12.0,16.0,82,0.00,,,0.00,WeatherCatV1.15B25,2013-04-11 19:12:00,
2013-04-11 15:22:00,32.2,27.9,29.90,NNE,26,6.0,15.0,84,0.00,,,0.00,WeatherCatV1.15B25,2013-04-11 19:22:00,
2013-04-11 15:27:00,32.2,27.9,29.90,SSE,156,7.0,18.0,84,0.00,,,0.00,WeatherCatV1.15B25,2013-04-11 19:27:00,
2013-04-11 15:32:00,32.3,27.7,29.89,East,86,8.0,12.0,83,0.00,,,0.00,WeatherCatV1.15B25,2013-04-11 19:32:00,
2013-04-11 15:37:00,32.1,27.8,29.88,ESE,112,8.0,13.0,84,0.00,,,0.00,WeatherCatV1.15B25,2013-04-11 19:37:00,
2013-04-11 15:42:00,32.1,28.1,29.88,ESE,108,6.0,8.0,85,0.00,,,0.00,WeatherCatV1.15B25,2013-04-11 19:42:00,
2013-04-11 15:52:00,31.9,27.6,29.88,ESE,112,10.0,15.0,84,0.00,,,0.00,WeatherCatV1.15B25,2013-04-11 19:52:00,
2013-04-11 15:57:00,31.8,27.2,29.88,ENE,60,14.0,20.0,83,0.00,,,0.00,WeatherCatV1.15B25,2013-04-11 19:57:00,
2013-04-11 16:07:00,31.6,27.9,29.88,SSW,195,3.0,9.0,86,0.00,,,0.00,WeatherCatV1.15B25,2013-04-11 20:07:00,
2013-04-11 16:12:00,31.5,28.1,29.87,SSW,195,3.0,9.0,87,0.00,,,0.00,WeatherCatV1.15B25,2013-04-11 20:12:00,
2013-04-11 16:17:00,31.5,28.1,29.88,SSW,195,3.0,9.0,87,0.00,,,0.00,WeatherCatV1.15B25,2013-04-11 20:17:00,
2013-04-11 16:22:00,31.5,28.1,29.88,SSW,195,6.0,11.0,87,0.00,,,0.00,WeatherCatV1.15B25,2013-04-11 20:22:00,
2013-04-11 16:27:00,31.4,27.7,29.89,SSW,195,6.0,12.0,86,0.00,,,0.00,WeatherCatV1.15B25,2013-04-11 20:27:00,
2013-04-11 16:32:00,31.4,28.0,29.89,SSW,195,5.0,11.0,87,0.00,,,0.00,WeatherCatV1.15B25,2013-04-11 20:32:00,
2013-04-11 16:37:00,31.3,28.2,29.89,SSW,195,7.0,7.0,88,0.00,,,0.00,WeatherCatV1.15B25,2013-04-11 20:37:00,
2013-04-11 16:42:00,31.2,28.1,29.89,SSW,195,9.0,10.0,88,0.00,,,0.00,WeatherCatV1.15B25,2013-04-11 20:42:00,
2013-04-11 16:47:00,31.0,27.9,29.89,SSW,195,4.0,11.0,88,0.00,,,0.00,WeatherCatV1.15B25,2013-04-11 20:47:00,
2013-04-11 16:52:00,30.9,28.0,29.88,SSW,195,4.0,10.0,89,0.00,,,0.00,WeatherCatV1.15B25,2013-04-11 20:52:00,
2013-04-11 16:57:00,30.8,27.9,29.88,SSW,195,5.0,10.0,89,0.00,,,0.00,WeatherCatV1.15B25,2013-04-11 20:57:00,
2013-04-11 17:02:00,30.7,27.9,29.87,SSW,195,4.0,14.0,89,0.00,,,0.00,WeatherCatV1.15B25,2013-04-11 21:02:00,
2013-04-11 17:07:00,30.6,27.8,29.85,SSW,195,5.0,9.0,89,0.00,,,0.00,WeatherCatV1.15B25,2013-04-11 21:07:00,
2013-04-11 17:17:00,30.6,28.0,29.84,SSW,195,7.0,13.0,90,0.00,,,0.00,WeatherCatV1.15B25,2013-04-11 21:17:00,
2013-04-11 17:22:00,30.6,28.0,29.85,SSW,195,16.0,16.0,90,0.00,,,0.00,WeatherCatV1.15B25,2013-04-11 21:22:00,
2013-04-11 17:27:00,30.6,28.0,29.85,SSW,195,4.0,13.0,90,0.00,,,0.00,WeatherCatV1.15B25,2013-04-11 21:27:00,
2013-04-11 17:32:00,30.5,28.2,29.85,SSW,195,3.0,7.0,91,0.00,,,0.00,WeatherCatV1.15B25,2013-04-11 21:32:00,
2013-04-11 17:37:00,30.4,28.1,29.87,SSW,195,3.0,4.0,91,0.00,,,0.00,WeatherCatV1.15B25,2013-04-11 21:37:00,
2013-04-11 17:42:00,30.4,28.1,29.85,SSW,195,5.0,10.0,91,0.00,,,0.00,WeatherCatV1.15B25,2013-04-11 21:42:00,
2013-04-11 17:47:00,30.5,28.2,29.86,SSW,195,6.0,9.0,91,0.00,,,0.00,WeatherCatV1.15B25,2013-04-11 21:47:00,
2013-04-11 17:52:00,30.6,28.0,29.85,SSW,195,4.0,11.0,90,0.00,,,0.00,WeatherCatV1.15B25,2013-04-11 21:52:00,
2013-04-11 17:57:00,30.6,27.8,29.85,SSW,195,3.0,11.0,89,0.00,,,0.00,WeatherCatV1.15B25,2013-04-11 21:57:00,
2013-04-11 18:02:00,30.8,27.9,29.83,SSW,195,8.0,13.0,89,0.00,,,0.00,WeatherCatV1.15B25,2013-04-11 22:02:00,
2013-04-11 18:07:00,30.8,27.7,29.84,SSW,195,5.0,11.0,88,0.00,,,0.00,WeatherCatV1.15B25,2013-04-11 22:07:00,
2013-04-11 18:12:00,30.9,27.8,29.85,SSW,195,1.0,7.0,88,0.00,,,0.00,WeatherCatV1.15B25,2013-04-11 22:12:00,
2013-04-11 18:17:00,31.0,27.9,29.85,SSW,195,6.0,7.0,88,0.00,,,0.00,WeatherCatV1.15B25,2013-04-11 22:17:00,
2013-04-11 18:22:00,31.0,27.9,29.85,SSW,195,2.0,11.0,88,0.00,,,0.00,WeatherCatV1.15B25,2013-04-11 22:22:00,
2013-04-11 18:27:00,31.0,27.9,29.85,SSW,195,6.0,6.0,88,0.00,,,0.00,WeatherCatV1.15B25,2013-04-11 22:27:00,
2013-04-11 18:32:00,31.0,28.1,29.84,SSW,195,5.0,7.0,89,0.00,,,0.00,WeatherCatV1.15B25,2013-04-11 22:32:00,
2013-04-11 18:37:00,30.9,27.8,29.84,SSW,195,6.0,10.0,88,0.00,,,0.00,WeatherCatV1.15B25,2013-04-11 22:37:00,
2013-04-11 18:42:00,30.8,27.7,29.84,SSW,195,5.0,7.0,88,0.00,,,0.00,WeatherCatV1.15B25,2013-04-11 22:42:00,
2013-04-11 18:47:00,30.8,27.9,29.84,SSW,195,6.0,10.0,89,0.00,,,0.00,WeatherCatV1.15B25,2013-04-11 22:47:00,
2013-04-11 18:52:00,30.8,27.9,29.83,SSW,195,6.0,8.0,89,0.00,,,0.00,WeatherCatV1.15B25,2013-04-11 22:52:00,
2013-04-11 18:57:00,30.9,28.3,29.83,SSW,195,6.0,7.0,90,0.00,,,0.00,WeatherCatV1.15B25,2013-04-11 22:57:00,
2013-04-11 19:02:00,30.9,28.3,29.83,SSW,195,5.0,6.0,90,0.00,,,0.00,WeatherCatV1.15B25,2013-04-11 23:02:00,
2013-04-11 19:07:00,31.0,28.4,29.83,SSW,195,3.0,8.0,90,0.00,,,0.00,WeatherCatV1.15B25,2013-04-11 23:07:00,
2013-04-11 19:12:00,31.0,28.4,29.82,SSW,195,3.0,6.0,90,0.00,,,0.00,WeatherCatV1.15B25,2013-04-11 23:12:00,
2013-04-11 19:17:00,31.0,28.4,29.82,SSW,195,3.0,6.0,90,0.00,,,0.00,WeatherCatV1.15B25,2013-04-11 23:17:00,
2013-04-11 19:22:00,31.1,28.8,29.82,SSW,195,6.0,6.0,91,0.00,,,0.00,WeatherCatV1.15B25,2013-04-11 23:22:00,
2013-04-11 19:27:00,31.0,28.4,29.82,SSW,195,3.0,4.0,90,0.00,,,0.00,WeatherCatV1.15B25,2013-04-11 23:27:00,
2013-04-11 19:32:00,31.0,28.1,29.82,SSW,195,2.0,9.0,89,0.00,,,0.00,WeatherCatV1.15B25,2013-04-11 23:32:00,
2013-04-11 19:42:00,31.1,28.2,29.82,SSW,195,8.0,8.0,89,0.00,,,0.00,WeatherCatV1.15B25,2013-04-11 23:42:00,
2013-04-11 19:47:00,31.0,28.1,29.81,SSW,195,5.0,7.0,89,0.00,,,0.00,WeatherCatV1.15B25,2013-04-11 23:47:00,
2013-04-11 19:52:00,30.9,28.0,29.81,SSW,195,4.0,8.0,89,0.00,,,0.00,WeatherCatV1.15B25,2013-04-11 23:52:00,
2013-04-11 19:57:00,30.9,28.3,29.80,SSW,195,4.0,7.0,90,0.00,,,0.00,WeatherCatV1.15B25,2013-04-11 23:57:00,
2013-04-11 20:02:00,30.9,28.3,29.80,SSW,195,2.0,7.0,90,0.00,,,0.00,WeatherCatV1.15B25,2013-04-12 00:02:00,
2013-04-11 20:07:00,30.9,28.6,29.80,SSW,195,3.0,6.0,91,0.00,,,0.00,WeatherCatV1.15B25,2013-04-12 00:07:00,
2013-04-11 20:12:00,31.0,28.7,29.80,SSW,195,4.0,5.0,91,0.00,,,0.00,WeatherCatV1.15B25,2013-04-12 00:12:00,
2013-04-11 20:17:00,31.0,28.7,29.79,SSW,195,1.0,6.0,91,0.00,,,0.00,WeatherCatV1.15B25,2013-04-12 00:17:00,
2013-04-11 20:22:00,31.0,28.7,29.78,SSW,195,6.0,6.0,91,0.00,,,0.00,WeatherCatV1.15B25,2013-04-12 00:22:00,
2013-04-11 20:27:00,31.1,28.8,29.77,SSW,195,2.0,6.0,91,0.00,,,0.00,WeatherCatV1.15B25,2013-04-12 00:27:00,
2013-04-11 20:32:00,31.2,29.2,29.77,SSW,195,2.0,6.0,92,0.00,,,0.00,WeatherCatV1.15B25,2013-04-12 00:32:00,
2013-04-11 20:37:00,31.3,29.0,29.77,SSW,195,1.0,7.0,91,0.00,,,0.00,WeatherCatV1.15B25,2013-04-12 00:37:00,
2013-04-11 20:42:00,31.5,29.2,29.78,SSW,195,1.0,5.0,91,0.00,,,0.00,WeatherCatV1.15B25,2013-04-12 00:42:00,
2013-04-11 20:47:00,31.6,29.3,29.78,SSW,195,4.0,5.0,91,0.00,,,0.00,WeatherCatV1.15B25,2013-04-12 00:47:00,
2013-04-11 20:52:00,31.7,29.1,29.79,SSW,195,5.0,7.0,90,0.00,,,0.00,WeatherCatV1.15B25,2013-04-12 00:52:00,
2013-04-11 20:57:00,31.7,29.1,29.80,SSW,195,1.0,6.0,90,0.00,,,0.00,WeatherCatV1.15B25,2013-04-12 00:57:00,
2013-04-11 21:02:00,31.7,29.1,29.79,SSW,195,4.0,7.0,90,0.00,,,0.00,WeatherCatV1.15B25,2013-04-12 01:02:00,
2013-04-11 21:07:00,31.6,29.0,29.79,SSW,195,2.0,5.0,90,0.00,,,0.00,WeatherCatV1.15B25,2013-04-12 01:07:00,
2013-04-11 21:12:00,31.5,28.9,29.79,SSW,195,5.0,5.0,90,0.00,,,0.00,WeatherCatV1.15B25,2013-04-12 01:12:00,
2013-04-11 21:17:00,31.6,29.3,29.79,SSW,195,3.0,5.0,91,0.00,,,0.00,WeatherCatV1.15B25,2013-04-12 01:17:00,
2013-04-11 21:22:00,31.5,29.2,29.80,SSW,195,1.0,4.0,91,0.00,,,0.00,WeatherCatV1.15B25,2013-04-12 01:22:00,
2013-04-11 21:25:00,31.5,29.2,29.80,SSW,195,2.0,4.0,91,0.00,,,0.00,WeatherCatV1.15B25,2013-04-12 01:25:00,
2013-04-11 21:27:00,31.5,29.2,29.79,SSW,195,1.0,5.0,91,0.00,,,0.00,WeatherCatV1.15B25,2013-04-12 01:27:00,
2013-04-11 21:30:00,31.4,29.1,29.79,SSW,195,3.0,3.0,91,0.00,,,0.00,WeatherCatV1.15B25,2013-04-12 01:30:00,
2013-04-11 21:35:00,31.4,29.1,29.79,SSW,195,3.0,3.0,91,0.00,,,0.00,WeatherCatV1.15B25,2013-04-12 01:35:00,
2013-04-11 21:40:00,31.4,29.1,29.79,SSW,202,3.0,7.0,91,0.00,,,0.00,WeatherCatV1.15B25,2013-04-12 01:40:00,
2013-04-11 21:45:00,31.4,29.1,29.79,SSW,202,3.0,7.0,91,0.00,,,0.00,WeatherCatV1.15B25,2013-04-12 01:45:00,
2013-04-11 21:50:00,31.4,29.1,29.79,SSW,202,3.0,7.0,91,0.00,,,0.00,WeatherCatV1.15B25,2013-04-12 01:50:00,
2013-04-11 21:55:00,31.4,29.1,29.79,SSW,202,3.0,7.0,91,0.00,,,0.00,WeatherCatV1.15B25,2013-04-12 01:55:00,
2013-04-11 22:00:00,31.4,29.1,29.79,SSW,202,3.0,7.0,91,0.00,,,0.00,WeatherCatV1.15B25,2013-04-12 02:00:00,
2013-04-11 22:05:00,31.4,29.1,29.79,SSW,202,3.0,7.0,91,0.00,,,0.00,WeatherCatV1.15B25,2013-04-12 02:05:00,
2013-04-11 22:10:00,31.4,29.6,29.81,SSW,202,1.0,3.0,93,0.00,,,0.00,WeatherCatV1.15B25,2013-04-12 02:10:00,
2013-04-11 22:15:00,31.4,29.6,29.81,SSW,202,1.0,3.0,93,0.00,,,0.00,WeatherCatV1.15B25,2013-04-12 02:15:00,
2013-04-11 22:20:00,31.4,29.6,29.81,SSW,202,1.0,3.0,93,0.00,,,0.00,WeatherCatV1.15B25,2013-04-12 02:20:00,
2013-04-11 22:25:00,31.4,29.6,29.81,SSW,202,1.0,3.0,93,0.00,,,0.00,WeatherCatV1.15B25,2013-04-12 02:25:00,
2013-04-11 22:30:00,31.4,29.6,29.81,SSW,202,1.0,3.0,93,0.00,,,0.00,WeatherCatV1.15B25,2013-04-12 02:30:00,
2013-04-11 22:35:00,31.4,29.6,29.81,SSW,202,1.0,3.0,93,0.00,,,0.00,WeatherCatV1.15B25,2013-04-12 02:35:00,
2013-04-11 22:40:00,31.6,30.1,29.79,SSW,202,1.0,4.0,94,0.00,,,0.00,WeatherCatV1.15B25,2013-04-12 02:40:00,
2013-04-11 22:45:00,31.6,30.1,29.79,SSW,202,1.0,4.0,94,0.00,,,0.00,WeatherCatV1.15B25,2013-04-12 02:45:00,
2013-04-11 22:50:00,31.6,30.1,29.79,SSW,202,1.0,4.0,94,0.00,,,0.00,WeatherCatV1.15B25,2013-04-12 02:50:00,
2013-04-11 22:55:00,31.6,30.1,29.79,SSW,202,1.0,4.0,94,0.00,,,0.00,WeatherCatV1.15B25,2013-04-12 02:55:00,
2013-04-11 23:00:00,31.6,30.1,29.79,SSW,202,1.0,4.0,94,0.00,,,0.00,WeatherCatV1.15B25,2013-04-12 03:00:00,
2013-04-11 23:05:00,31.6,30.1,29.79,SSW,202,1.0,4.0,94,0.00,,,0.00,WeatherCatV1.15B25,2013-04-12 03:05:00,
2013-04-11 23:10:00,31.9,30.1,29.76,SSW,202,2.0,5.0,93,0.00,,,0.00,WeatherCatV1.15B25,2013-04-12 03:10:00,
2013-04-11 23:15:00,31.9,30.1,29.76,SSW,202,2.0,5.0,93,0.00,,,0.00,WeatherCatV1.15B25,2013-04-12 03:15:00,
2013-04-11 23:20:00,31.9,30.1,29.76,SSW,202,2.0,5.0,93,0.00,,,0.00,WeatherCatV1.15B25,2013-04-12 03:20:00,
2013-04-11 23:25:00,31.9,30.1,29.76,SSW,202,2.0,5.0,93,0.00,,,0.00,WeatherCatV1.15B25,2013-04-12 03:25:00,
2013-04-11 23:30:00,31.9,30.1,29.76,SSW,202,2.0,5.0,93,0.00,,,0.00,WeatherCatV1.15B25,2013-04-12 03:30:00,
2013-04-11 23:35:00,31.9,30.1,29.76,SSW,202,2.0,5.0,93,0.00,,,0.00,WeatherCatV1.15B25,2013-04-12 03:35:00,
2013-04-11 23:40:00,31.7,29.9,29.74,SSW,202,2.0,6.0,93,0.00,,,0.00,WeatherCatV1.15B25,2013-04-12 03:40:00,
2013-04-11 23:45:00,31.7,29.9,29.74,SSW,202,2.0,6.0,93,0.00,,,0.00,WeatherCatV1.15B25,2013-04-12 03:45:00,
2013-04-11 23:50:00,31.7,29.9,29.74,SSW,202,2.0,6.0,93,0.00,,,0.00,WeatherCatV1.15B25,2013-04-12 03:50:00,
2013-04-11 23:55:00,31.7,29.9,29.74,SSW,202,2.0,6.0,93,0.00,,,0.00,WeatherCatV1.15B25,2013-04-12 03:55:00,